Location: Gwatt
(46.7204°N, 7.6223°E)
Time: 16:56:23
(UTC+00:00)

deb Explorer IX - Pass Details

Date: 28 January 2021
Orbit: 537 x 1102 km, 38.8° (Epoch: 04 March)

Event Time Altitude Azimuth Distance (km) Brightness Sun altitude
Rises 14:44:51 0° 217° (SW) 3,892 ? 13.4°
Reaches altitude 10° 14:48:15 10° 204° (SSW) 2,905 ? 12.9°
Maximum altitude 14:53:37 23° 155° (SSE) 2,005 ? 12.3°
Drops below altitude 10° 14:58:39 10° 105° (ESE) 2,692 ? 11.7°
Sets 15:01:38 0° 91° (E) 3,545 ? 11.3°
